Tracking 19476 objects as of 17-Jan-2019
HD Live streaming from Space Station
objects crossing your sky now

DFH-3 2

Track DFH-3 2 now!
DFH-3 2 is classified as:


NORAD ID: 24798
Int'l Code: 1997-021A
Perigee: 35,780.6 km
Apogee: 35,831.2 km
Inclination: 11.2 °
Period: 1,436.7 minutes
Semi major axis: 42176 km
RCS: 12.5892 m2 (large)
Launch date: May 11, 1997
Source: People's Republic of China (PRC)
Launch site: Xichang Space Center, China (XSC)

24 C-band; 6 television channels and 18 communications channels; Dongfanghong-3 = "East is Red, 3."
aabbcc
Your satellite tracking list
Your tracking list is empty




NASA's NSSDC Master Catalog

Two Line Element Set (TLE):
1 24798U 97021A   19016.83679052 +.00000130 +00000-0 +00000-0 0  9990
2 24798 011.1853 033.0688 0006000 002.5271 049.3594 01.00228358079360
Source of the keplerian elements: AFSPC